User: anonymous
Location: Caltech
(34.1382°N, 118.1253°W)
Time: 00:20:47
(UTC-07:00)
Language:

Cosmos 44 Rocket - Orbit

View from above orbital plane
View from above orbital plane
View from above satellite
View from above satellite

Ground track
Ground track

The orbit data is extracted from the following two-line orbital elements,

1 00877U 64053B   14108.40949495  .00000233  00000-0  73110-4 0  5718
2 00877 065.0797 068.4457 0075264 216.7827 142.8095 14.58813850632888
Epoch (UTC): 18 April 2014 09:49:40
Eccentricity: 0.0075264
inclination: 65.0797°
perigee height: 644 km
apogee height: 750 km
right ascension of ascending node: 68.4457°
argument of perigee: 216.7827°
revolutions per day: 14.58813850
mean anomaly at epoch: 142.8095°
orbit number at epoch: 63288

The dashed part of the orbit path shows where the satellite is in the earth's shadow,  

DLR